Regional Weather Roundup
Issued by NWS

Home | Current Version | Previous Version | Graphics & Text | Print | Product List | Glossary On
Versions: 1 2 3 4 5 6 7 8 9 10 11 12 13 14 15 16 17 18 19 20 21 22 23 24 25 26 27 28 29 30 31 32 33 34 35 36 37 38 39 40 41 42 43 44 45 46 47 48 49 50
000
ASUS43 KLMK 262310
RWRKY
KENTUCKY REGIONAL WEATHER ROUNDUP
NATIONAL WEATHER SERVICE LOUISVILLE KY
700 PM EDT TUE MAY 26 2015

NOTE "FAIR" INDICATES FEW OR NO CLOUDS BELOW 12,000 FEET
WITH NO SIGNIFICANT WEATHER AND/OR OBSTRUCTIONS TO VISIBILITY.

KYZ001>023-026-027-061>063-070>075-270000-
WESTERN AND SOUTH CENTRAL KENTUCKY

CITY           SKY/WX    TMP DP  RH WIND       PRES   REMARKS
PADUCAH        PTSUNNY   77  62  59 SW10      29.99S
HENDERSON      MOSUNNY   75  61  60 SW13      29.97S
OWENSBORO      PTSUNNY   78  65  64 W12G21    29.98S
HOPKINSVILLE   PTSUNNY   78  64  63 SW13      30.01S
BOWLING GREEN  CLOUDY    76  68  76 S9        30.02F
GLASGOW        MOSUNNY   72  67  85 S6        30.04S
$$

KYZ024-025-028>034-038-045-046-053-270000-
NORTH CENTRAL KENTUCKY

CITY           SKY/WX    TMP DP  RH WIND       PRES   REMARKS
LOUISVILLE/SDF CLOUDY    72  67  84 S10       30.00S
LOUISVILLE/LOU LGT RAIN  71  67  87 S7        30.00F
FORT KNOX      CLOUDY    70  67  92 S10       30.00S
$$

KYZ035>037-039>044-047>052-055>060-089>105-270000-
NORTHEAST KENTUCKY

CITY           SKY/WX    TMP DP  RH WIND       PRES   REMARKS
LEXINGTON      LGT RAIN  69  67  93 SW16G29   30.04S FOG
COVINGTON      CLOUDY    72  69  90 S8        30.01S
FRANKFORT      LGT RAIN  70  65  84 SW14G21   30.02S
$$

KYZ054-064>069-076>088-106>120-270000-
SOUTHEAST KENTUCKY

CITY           SKY/WX    TMP DP  RH WIND       PRES   REMARKS
JACKSON        MOSUNNY   80  64  58 VRB6      30.06F
LONDON         PTSUNNY   82  61  48 S14G23    30.07S
SOMERSET       CLOUDY    72  64  78 W14G20    30.10R
MIDDLESBORO    LGT RAIN  71  70  97 NE3       30.10S
MONTICELLO     CLOUDY    72  72 100 SW9       30.13R THUNDER FOG
$$




USA.gov is the U.S. government's official web portal to all federal, state and local government web resources and services.